FW4102 Weather Reports


time (UTC)temp
F
wind
direction
speed
knots
gust
knots
rain 1hr
in
rain 24hr
in
rain mn
in
humidity
%
barometer
mb
20260506221536 46 0 0.0 0.9 0.00 0.17 0.00 65 1027.9
20260506220044 45 0 0.0 0.9 0.00 0.17 0.00 65 1027.7
20260506214537 45 0 0.0 1.7 0.00 0.17 0.00 65 1027.4
20260506213054 45 199 0.0 2.6 0.00 0.17 0.00 64 1027.3
20260506211542 46 0 0.0 0.0 0.00 0.18 0.00 64 1027.1
20260506210037 46 199 0.0 3.5 0.00 0.18 0.00 65 1026.9
20260506204539 46 0 0.0 3.5 0.00 0.18 0.00 65 1026.8
20260506203037 46 0 0.0 1.7 0.00 0.18 0.00 65 1026.6
20260506201537 46 0 0.0 2.6 0.00 0.18 0.00 65 1026.5
20260506200037 46 0 0.0 2.6 0.00 0.18 0.00 64 1026.5
20260506194538 46 0 0.0 1.7 0.00 0.18 0.00 64 1026.4
20260506193035 46 0 0.9 3.5 0.00 0.18 0.00 64 1026.3
20260506191537 47 199 0.9 4.3 0.00 0.18 0.00 64 1026.3
20260506190038 47 201 0.0 2.6 0.00 0.18 0.00 64 1026.2
20260506184538 47 201 0.0 4.3 0.00 0.18 0.00 63 1025.9
20260506183041 47 0 0.0 4.3 0.00 0.18 0.00 63 1025.8
20260506181543 47 0 0.9 5.2 0.00 0.18 0.00 62 1025.5
20260506180037 47 0 1.7 4.3 0.00 0.18 0.00 62 1025.7
20260506174536 47 195 0.9 4.3 0.00 0.18 0.00 61 1025.6
20260506173043 47 194 0.0 5.2 0.00 0.18 0.00 61 1025.7
20260506171535 48 200 1.7 6.1 0.00 0.18 0.00 61 1025.8
20260506170041 48 169 1.7 12.2 0.00 0.18 0.00 60 1025.7
20260506164538 48 0 0.9 5.2 0.00 0.18 0.00 59 1025.8
20260506163037 48 158 0.0 2.6 0.00 0.18 0.00 59 1025.6
20260506161537 48 158 0.9 4.3 0.00 0.18 0.00 59 1025.7
20260506160039 48 157 0.0 2.6 0.00 0.18 0.00 58 1025.8
20260506154539 48 157 0.0 4.3 0.00 0.18 0.00 57 1025.6
20260506153035 48 157 0.9 2.6 0.00 0.18 0.00 57 1025.6
20260506151535 49 155 0.9 4.3 0.00 0.18 0.00 57 1025.7
20260506150035 49 150 1.7 9.6 0.00 0.18 0.00 55 1025.8
20260506144537 49 198 0.9 2.6 0.00 0.18 0.00 55 1025.6
20260506143035 49 198 0.9 5.2 0.00 0.18 0.00 55 1025.5
20260506141535 49 210 2.6 7.0 0.00 0.18 0.18 56 1025.5
20260506140037 49 111 2.6 9.6 0.00 0.18 0.18 57 1025.5
20260506134535 49 182 0.0 5.2 0.00 0.18 0.18 57 1025.5
20260506133035 49 185 1.7 7.0 0.00 0.18 0.18 58 1025.4
20260506131546 49 207 1.7 7.8 0.00 0.18 0.18 59 1025.4
20260506130039 49 167 2.6 9.6 0.00 0.18 0.18 59 1025.4
20260506124536 49 195 0.9 7.8 0.00 0.18 0.18 59 1025.2
20260506123038 49 182 0.0 4.3 0.00 0.18 0.18 59 1025.2
20260506121537 49 202 0.9 5.2 0.00 0.18 0.18 59 1025.1
20260506120037 49 181 0.9 4.3 0.00 0.18 0.18 60 1024.9
20260506114537 49 193 0.9 5.2 0.00 0.18 0.18 61 1024.9
20260506113037 50 173 1.7 6.1 0.00 0.18 0.18 62 1024.7
20260506111533 50 0 0.9 4.3 0.00 0.18 0.18 63 1024.4
20260506110038 50 166 1.7 5.2 0.00 0.18 0.18 63 1024.4
20260506104541 50 163 2.6 8.7 0.00 0.18 0.18 63 1024.4
20260506103039 50 0 0.0 5.2 0.00 0.18 0.18 63 1024.0
20260506101537 51 198 1.7 8.7 0.00 0.18 0.18 64 1023.9
20260506100037 51 0 0.0 5.2 0.00 0.18 0.18 64 1023.8
20260506094547 52 199 0.0 6.1 0.00 0.18 0.18 64 1023.6
20260506093039 52 206 1.7 11.3 0.00 0.18 0.18 64 1023.4
20260506091538 53 0 1.7 7.8 0.00 0.17 0.17 64 1023.2
20260506090037 53 187 1.7 7.8 0.00 0.17 0.17 64 1023.0
20260506084541 54 139 0.9 8.7 0.00 0.17 0.17 64 1022.7
20260506083035 54 186 0.9 7.8 0.00 0.17 0.17 64 1022.5
20260506081540 55 0 1.7 10.4 0.00 0.17 0.17 65 1022.2
20260506073039 57 194 0.9 3.5 0.00 0.17 0.17 61 1021.7
20260506071536 57 190 0.9 5.2 0.00 0.17 0.17 61 1021.5
20260506061537 58 202 0.9 7.0 0.00 0.17 0.17 59 1021.4
20260506044541 57 202 1.7 9.6 0.01 0.17 0.17 64 1020.9
20260506043037 57 220 0.9 4.3 0.01 0.17 0.17 64 1020.9
20260506041537 56 202 0.9 6.1 0.01 0.17 0.17 64 1021.1
20260506040042 56 0 0.9 7.0 0.02 0.17 0.17 64 1021.1
20260506034535 57 252 0.9 4.3 0.08 0.15 0.15 64 1021.0
20260506033036 56 255 1.7 6.1 0.11 0.15 0.15 64 1021.1
20260506031537 56 249 1.7 8.7 0.11 0.15 0.15 63 1021.1
20260506030039 56 234 0.9 7.8 0.10 0.14 0.14 62 1021.1
20260506024546 57 276 2.6 10.4 0.01 0.06 0.06 61 1021.1
20260506023040 57 290 5.2 11.3 0.00 0.04 0.04 60 1021.3
20260506021538 58 274 3.5 8.7 0.00 0.04 0.04 60 1021.6
20260506020037 58 0 2.6 10.4 0.00 0.04 0.04 60 1021.9
20260506014541 58 278 2.6 12.2 0.00 0.04 0.04 61 1022.1
20260506013037 57 295 2.6 15.6 0.00 0.04 0.04 63 1022.1
20260506011537 57 286 3.5 12.2 0.00 0.04 0.04 65 1022.2
20260506010036 57 265 3.5 7.0 0.00 0.04 0.04 66 1022.2
20260506004538 56 272 3.5 10.4 0.00 0.04 0.04 67 1022.1
20260506003039 56 272 2.6 7.8 0.00 0.04 0.04 67 1022.2
20260506001539 56 0 2.6 8.7 0.02 0.04 0.04 67 1022.4
20260506000037 55 0 3.5 9.6 0.02 0.04 0.04 66 1022.2
20260505234537 54 0 2.6 7.0 0.02 0.04 0.04 66 1022.2
20260505233035 54 268 1.7 8.7 0.02 0.04 0.04 66 1022.2
20260505231549 54 267 1.7 8.7 0.00 0.02 0.02 65 1022.2
20260505230049 54 259 1.7 7.0 0.00 0.02 0.02 65 1022.1
20260505224538 54 255 1.7 7.0 0.00 0.02 0.02 65 1021.9
20260505223037 54 250 2.6 7.8 0.01 0.02 0.02 65 1022.0